Погода в Беллинцоне

Швейцария     46°11′36″N   9°01′10″E
темп.,
°C
ветер,
м/с
пор.,
м/с
влажн.,
%
обл.,
%
осадки,
мм/ч
давл.,
гПа
погр.,
м
14 апреля, ср
ср1423:00−5с47711 0.0 1029164
02:00−6ссв46701 0.0 1029139
05:00−7ссв35661 0.0 1028119
08:00−5ссв33511 0.0 1026161
11:00+3ю11300 0.0 10231182
14:00+6ююз11309 0.0 10202040
17:00+6ююв123985 0.0 10181950
20:000св227398 0.3 102252
15 апреля, чт
чт1523:00−3с2482100 0.4 102483
02:00−3с2383100 0.8 1024102
05:00−3с2390100 2.5 1024179
08:00−3ссв1281100 3.1 1024213
11:00+1ююв126299 0.2 10231094
14:00+3ююз216498 0.9 10201195
17:00+2ююз2276100 1.6 1020728
20:00−1ююз0196100 3.3 102135
16 апреля, пт
пт1623:00−5ссв229276 0.5 102439
02:00−5ссв228775 0.6 102450
05:00−6ссв238775 0.0 102446
08:00−3ссв12815 0.0 102278
11:00+3юз116523 0.0 10201044
14:00+5юз225395 0.2 10181713
17:00+5юз215269 0.1 10161458
20:000ссз018412 0.2 101810
17 апреля, сб
сб1723:00−3ссв338427 0.0 102247
02:00−4ссв33835 0.0 102145
05:00−4ссв33805 0.0 102040
08:00−1ссв22695 0.0 101888
11:00+6юз115220 0.0 10151205
14:00+9ссз124781 0.0 10121779
17:00+7ссв335126 0.1 10121208
20:00+1ссв477355 0.1 1016166
18 апреля, вс
вс1823:00−2с3578100 0.0 1020100
02:00−3с347758 0.0 102077
05:00−3с3575100 0.0 1019107
08:000с3564100 0.0 1018250
11:00+6с2245100 0.0 10161136
14:00+9с224298 0.0 10151796
17:00+8ссв334778 0.0 10151524
20:00+2ссв35736 0.0 1018100